Flag for Colombia Weather past 2 weeks in Cali, Colombia

Now
84 °F

Scattered clouds.


Feels Like: 86 °F
Forecast: 70 / 83 °F
Wind: 6 mph from East

Location: Cali / Alfonso Bonillaaragon

Current Time: Oct 21, 2014 at 12:23:29 PM

Latest Report: Oct 21, 2014 at 12:00 PM


Visibility: N/A

Pressure: 29.98 "Hg

Humidity: 51%

Dew point: 64 °F

Location of CaliLocation

Historic Weather in Cali — Graph

°F

Cali temperature yesterday

Maximum temperature yesterday: 84 °F (at 1:00 PM)
Minimum temperature yesterday: 68 °F (at 9:00 PM)
Average temperature yesterday: 74 °F

Past Weeks' High & Low Weather Summary

 TemperatureHumidityPressure
High91 °F (Oct 16, 2:00 PM)100% (Oct 21, 5:00 AM)30.11 "Hg (Oct 21, 5:00 AM)
Low64 °F (Oct 12, 5:00 AM)33% (Oct 16, 1:00 PM)29.81 "Hg (Oct 18, 3:00 PM)
Average75 °F74%29.98 "Hg
* Reported Oct 6 11:00 AM — Oct 21 11:00 AM, Cali, Weather by CustomWeather, © 2014

Note: Actual official high and low records may vary slightly from our data, if they occured in-between our weather recording intervals... More about our weather records

Advertising

Cali weather history for previous 24 hours

 ConditionsComfort  
Time TempWeatherWind HumidityBarometerVisibility
11:00 AM
Oct 21
82 °FScattered clouds.No wind55%30.02 "HgN/A
10:00 AM79 °FScattered clouds.5 mph61%30.05 "HgN/A
9:00 AM73 °FScattered clouds.No wind74%30.06 "HgN/A
8:00 AM68 °FBroken clouds.No wind88%30.05 "Hg2 mi
7:00 AM66 °FLight fog.No wind94%30.03 "Hg2 mi
6:00 AM64 °FFog.3 mph94%30.00 "Hg0 mi
5:00 AM64 °FFog.No wind100%29.98 "Hg5 mi
4:00 AM66 °FPassing clouds.3 mph94%29.96 "HgN/A
3:00 AM66 °FPassing clouds.No wind94%29.96 "HgN/A
2:00 AM66 °FPassing clouds.No wind94%29.98 "HgN/A
1:00 AM68 °FPassing clouds.No wind94%30.00 "HgN/A
12:00 AM68 °FPassing clouds.3 mph94%30.01 "HgN/A
11:00 PM
Oct 20
68 °FPassing clouds.3 mph88%30.04 "HgN/A
10:00 PM70 °FPassing clouds.3 mph83%30.04 "HgN/A
9:00 PM68 °FPassing clouds.5 mph88%30.03 "HgN/A
8:00 PM70 °FPassing clouds.5 mph83%30.01 "HgN/A
7:00 PM72 °FScattered showers. Passing clouds.3 mph78%29.96 "Hg6 mi
6:00 PM70 °FScattered showers. Partly cloudy.6 mph83%29.94 "Hg5 mi
5:00 PM77 °FThunderstorms. Cloudy.5 mph69%29.92 "HgN/A
4:00 PM82 °FScattered showers. Broken clouds.12 mph55%29.86 "HgN/A
3:00 PM84 °FScattered showers. Broken clouds.12 mph51%29.87 "HgN/A
2:00 PM84 °FScattered showers. Broken clouds.12 mph51%29.89 "HgN/A
1:00 PM84 °FBroken clouds.7 mph51%29.94 "HgN/A
12:00 PM82 °FScattered clouds.3 mph51%29.99 "HgN/A
Weather by CustomWeather, © 2014

See weather overviewHow to use our weather pages